Regional Weather Roundup
Issued by NWS Boston, MA

Home | Current Version | Previous Version | Text Only | Print | Product List | Glossary On
Versions: 1 2 3 4 5 6 7 8 9 10 11 12 13 14 15 16 17 18 19 20 21 22 23 24 25 26 27 28 29 30 31 32 33 34 35 36 37 38 39 40 41 42 43 44 45 46 47 48 49 50
000
ASUS41 KBOX 092210
RWRBOX

REGIONAL WEATHER ROUNDUP
NATIONAL WEATHER SERVICE TAUNTON MA
500 PM EST FRI DEC 09 2016

NOTE:  "FAIR" INDICATES FEW OR NO CLOUDS BELOW 12,000 FEET WITH NO
SIGNIFICANT WEATHER AND/OR OBSTRUCTIONS TO VISIBILITY.

MAZALL-092300-
EASTERN MASSACHUSETTS

CITY           SKY/WX    TMP DP  RH WIND       PRES   REMARKS
BOSTON         PTCLDY    32  10  40 NW13      30.05R WCI  22
BEVERLY        CLEAR     31   9  39 NW15G24   30.04R WCI  20
LAWRENCE       CLEAR     30   9  41 NW15G21   30.05R WCI  19
BEDFORD        CLEAR     30   5  34 NW18G25   30.05R WCI  18
BLUE HILL        N/A     28  10  46 NW13G21   30.00R WCI  17
NORWOOD        CLEAR     32  11  41 NW14G20   30.05R WCI  22
MARSHFIELD     CLEAR     32  10  40 NW6G13    30.04R WCI  26
PLYMOUTH       CLEAR     32  11  41 W12       30.04R WCI  23
TAUNTON        CLEAR     32  11  41 NW7G17    30.05R WCI  26
NEW BEDFORD    CLEAR     33  13  43 W9        30.04R WCI  25
$$

MAZALL-092300-
CAPE COD AND THE ISLANDS

CITY           SKY/WX    TMP DP  RH WIND       PRES   REMARKS
FALMOUTH       CLEAR     30  12  47 MISG      30.04R
HYANNIS        CLEAR     33  12  41 NW8       30.02R WCI  26
CHATHAM        MOCLDY    35  14  42 W6        30.03R WCI  30
PROVINCETOWN   MOCLDY    34  16  47 NW22G29   30.03R WCI  22
NANTUCKET      CLOUDY    35  16  45 W13       30.03R WCI  26
MARTHAS VNYRD  CLEAR     34  13  41 W16G23    30.04R WCI  24
$$

MAZALL-092300-
CENTRAL AND WESTERN MASSACHUSETTS

CITY           SKY/WX    TMP DP  RH WIND       PRES   REMARKS
WORCESTER      CLEAR     26   7  44 W10       30.02R WCI  16
FITCHBURG      CLEAR     30   7  37 NW13      30.06R WCI  20
ORANGE         CLEAR     27   9  46 W16G28    30.07R WCI  15
SPRINGFIELD    PTCLDY    28   9  45 W15       30.10R WCI  16
WESTFIELD      CLEAR     28   9  44 NW17G26   30.12R WCI  16
NORTH ADAMS    CLOUDY    25   8  48 W16G24    30.11R WCI  12
PITTSFIELD     MOCLDY    22   7  52 NW23G33   30.07R WCI   6
$$

RIZALL-092300-
RHODE ISLAND

CITY           SKY/WX    TMP DP  RH WIND       PRES   REMARKS
PROVIDENCE     PTCLDY    32  10  40 NW15G24   30.07R WCI  22
NEWPORT        CLEAR     33  15  47 NW15G22   30.06R WCI  23
BLOCK ISLAND   CLEAR     34  17  50 NW12G24   30.08R WCI  25
SMITHFIELD     CLEAR     30  13  49 W13G21    30.05R WCI  20
WESTERLY       CLEAR     34  13  41 NW8       30.10R WCI  27
$$

CTZALL-092300-
CONNECTICUT

CITY           SKY/WX    TMP DP  RH WIND       PRES   REMARKS
BRADLEY INTL   PTCLDY    29  10  45 NW15G25   30.13R WCI  18
HARTFORD       CLEAR     31  13  47 NW15G21   30.14R WCI  20
BRIDGEPORT     CLEAR     36  11  35 NW16G23   30.14R WCI  26
DANBURY        CLEAR     31  10  41 W7        30.14R WCI  24
GROTON         PTCLDY    35  15  44 NW12      30.10R WCI  27
NEW HAVEN      PTCLDY    35  14  42 NW9       30.13R WCI  28
CHESTER        FAIR      32  14  47 NW10      30.10R WCI  24
MERIDEN        MOCLDY    34  12  40 NW14G20   30.13R WCI  25
WILLIMANTIC    CLEAR     32  11  41 NW20G29   30.11R WCI  20
OXFORD         PTCLDY    30  10  43 N12G21    30.11R WCI  21
$$

MEZ002-015-021-024-NHZ003-005-008-011-012-014-VTZ005-008-092300-
NORTHERN NEW ENGLAND

CITY           SKY/WX    TMP DP  RH WIND       PRES   REMARKS
PORTLAND ME    PTCLDY    27   8  44 NW17G26   30.00R WCI  14
BANGOR ME      MOCLDY    25  11  55 NW13G29   29.92R WCI  14
CONCORD NH     CLEAR     27   8  44 NW13G22   30.04R WCI  16
MANCHESTER NH  PTCLDY    29   7  39 NW17G25   30.04R WCI  17
NASHUA NH      PTCLDY    29  10  45 NW15G26   30.05R WCI  18
PORTSMOUTH NH  PTCLDY    28   7  41 W12       30.03R WCI  18
JAFFREY NH     CLEAR     25   5  42 NW8G17    30.02R WCI  16
KEENE NH       CLEAR     27   9  46 NW9G21    30.08  WCI  18
BURLINGTON VT  CLOUDY    25  10  53 W15G23    30.14R WCI  13
MT. WASHINGTON SNOW      -4  -4 100 W83G92      N/A  VSB 0   WCI -42
$$

NYZ052-076-092300-
EASTERN NEW YORK

CITY           SKY/WX    TMP DP  RH WIND       PRES   REMARKS
ALBANY         MOCLDY    27   8  44 NW16G29   30.19R WCI  15
NEW YORK CITY  MOCLDY    39  18  42 NW22G35   30.18R WCI  29
$$

ANZALL-092300-
MARINE OBSERVATIONS

STATION/POSITION TIME  TEMP    WIND        PRES    VSBY  WAVE
                       AIR SEA DIR/SP/G                  HT/PER
                 (UTC) (F)     (DEG/KT/KT) (MB)    (MI)  (FT/S)
BOSTON BUOY      2050   36 50  300/ 21/ 29 1014.5          3/ 4
BUZZARDS BAY     2100   35     300/ 29/ 32 1017.2R
NANTUCKET SOUND  NOT AVBL
MASS BAY-STELLWA 2104   35 47  320/ 19/ 23 1015.3R  1 7/8  4/ 3
ISLE OF SHOALS   2100   31     290/ 23/ 25 1015.3R
S OF BLOCK IS    2155      54                N/A           7/ 6
$$

......................KEY.........................
  SKY/WX - SKY CONDITION/PRESENT WEATHER
  TMP    - TEMPERATURE IN FAHRENHEIT
  DWPT   - DEWPOINT IN FAHRENHEIT
  RH     - RELATIVE HUMIDITY IN PERCENT
  WIND   - DIRECTION AND SPEED IN MPH
  PRES   - MEAN SEA LEVEL PRESSURE IN INCHES OF HG
  WCI    - WIND CHILL INDEX
  VSB    - VISIBILITY IN MILES
  HX     - HEAT INDEX
  TC     - TEMPERATURE IN CELSIUS
  VRB    - VARIABLE WIND DIRECTION
  N/A    - NOT AVAILABLE



USA.gov is the U.S. government's official web portal to all federal, state and local government web resources and services.